sat.trackr.live / text

‹ back to catalog

STARLINK-32768

NORAD 62503 · 2025-003S

PAYLOAD ACTIVE UNKNOWN

§ Identity

Operator
Country
US
Launch date
2025-01-06
Launch site
AFETR
Launch vehicle
Mass (kg)
RCS (m²)

Purposes: comms

External: N2YO · Heavens-Above · Gunter

§ Orbital elements

Epoch: 2026-09-21T09:09:27.690336Z

Period
94.27 min
Inclination
43.0043°
Eccentricity
0.0001918
Mean motion
15.27588340 rev/d
Perigee alt
481.7 km
Apogee alt
484.3 km
Semi-major
6,861.2 km
B*
3.2197e-4
RAAN
263.4969°
Arg perigee
286.5593°
Mean anomaly
73.5048°
Rev number
9,648

§ Raw data

STARLINK-327681 62503U 25003S   26264.38157049  .00008610  00000+0  32197-3 0  99922 62503  43.0043 263.4969 0001918 286.5593  73.5048 15.27588340 96485

JSON: /api/v1/satellites/62503 · /tle

For live sub-satellite position, see the globe view (requires WebGL).

§ Visibility from observer

Set your observer location to see the next 7 days of passes ≥ 10°. The values pass through the URL so the page stays shareable.

No JS? Fill the form by hand. The geolocation button needs JavaScript.